Location: ??????????
(54.8537°N, 38.8755°E)
Time: 02:50:02
(UTC+00:00)

Vanguard 2 Rocket - Pass Details

Date: 19 September 2024
Orbit: 553 x 3298 km, 32.9° (Epoch: 10 October)

Event Time Altitude Azimuth Distance (km) Brightness Sun altitude
Rises 00:47:23 0° 246° (WSW) 4,896 - -19.4°
Reaches altitude 10° 00:50:50 10° 234° (SW) 4,282 - -19.0°
Exits shadow 00:54:39 20° 217° (SW) 3,871 9.5 -18.6°
Maximum altitude 01:00:35 28° 183° (S) 3,916 9.8 -17.8°
Drops below altitude 10° 01:14:07 10° 134° (SE) 6,018 11.3 -16.1°
Sets 01:20:14 0° 125° (SE) 7,222 11.9 -15.3°
